GFSNIL_prec_cloud_273.txt.gz
Cloud_Cover
0 0 0 0 2 5 1 5 5 5 5 5 5 6 86 100 100 100 100 100 100 100
0 0 0 0 0 5 2 4 5 5 5 16 5 5 5 5 35 100 82 100 100 100
0 0 0 0 0 4 2 1 5 5 5 5 67 5 5 5 56 95 99 41 73 100
0 0 0 0 0 0 3 0 5 5 26 5 5 5 5 5 30 99 13 5 40 100
0 0 0 0 0 0 0 0 5 10 100 72 83 73 5 5 5 5 5 5 14 57
0 0 0 0 1 0 0 0 4 5 92 100 22 10 5 5 5 5 5 5 20 88
0 0 0 2 5 0 3 0 0 1 14 99 100 94 6 5 5 5 5 5 5 53
0 0 0 0 0 0 1 1 0 0 1 32 98 100 35 5 5 5 5 5 5 11
0 0 0 0 0 0 0 0 0 0 0 0 18 100 99 6 5 5 5 5 5 5
0 0 0 0 0 0 0 0 0 0 0 0 5 81 85 26 5 5 5 5 5 11
0 0 0 0 0 0 0 0 0 0 0 0 5 93 100 7 4 0 3 5 5 5
0 0 0 0 0 0 0 0 0 0 0 4 5 26 100 39 5 2 0 0 1 5
0 0 0 0 0 0 0 0 0 0 0 0 0 4 79 51 5 5 0 0 0 4
0 0 4 2 0 0 0 0 0 0 0 0 0 0 31 12 5 5 0 0 5 5

GFSNIL_prec_cloud_276.txt.gz
Cloud_Cover
0 0 0 0 0 5 0 4 5 5 5 5 5 5 5 5 42 100 92 15 98 97
0 0 0 0 0 0 0 0 5 5 5 5 5 5 34 12 39 100 76 17 61 76
0 0 0 0 0 0 0 0 5 16 31 5 5 5 92 45 6 15 5 5 97 100
0 0 0 0 0 0 0 0 0 4 18 21 5 5 9 44 86 27 5 5 56 56
0 0 0 0 0 0 0 0 0 1 6 62 6 5 5 5 6 53 68 5 81 65
0 0 0 0 0 0 0 0 0 0 4 5 77 36 19 5 5 5 8 47 88 59
0 0 0 0 0 0 0 0 0 0 0 4 72 100 99 7 5 5 5 5 8 62
0 0 0 0 0 0 0 0 0 0 0 0 5 99 100 17 5 1 5 5 5 24
0 0 0 0 0 0 0 1 0 0 0 0 3 35 99 73 4 3 4 5 5 69
0 2 5 5 2 2 1 0 4 0 0 0 4 24 100 8 0 0 0 2 5 5
0 5 5 5 5 5 6 9 7 2 5 5 2 9 86 44 5 5 1 0 0 3
5 4 5 5 42 26 5 25 97 38 5 5 5 2 68 56 5 5 3 0 0 2
5 5 5 5 7 62 41 100 100 84 16 49 5 6 41 39 5 5 0 0 0 0
5 5 6 5 16 91 32 49 100 97 77 31 97 73 36 11 56 5 5 5 65 72

GFSNIL_prec_cloud_279.txt.gz
Cloud_Cover
0 0 0 0 0 0 0 0 5 5 5 5 5 5 5 5 6 92 23 42 65 75
0 0 0 0 0 0 0 0 0 5 5 5 5 5 2 0 5 5 5 30 100 100
0 0 0 0 0 0 0 0 0 0 5 5 5 5 1 2 5 5 5 6 97 75
0 0 0 0 0 0 0 0 0 0 1 5 21 5 5 5 5 5 5 5 86 88
0 0 0 2 4 0 0 0 0 5 3 3 83 97 22 5 5 5 5 5 7 5
1 0 2 5 5 5 5 5 5 11 5 17 5 98 100 15 5 5 5 5 5 17
16 37 16 5 5 26 5 5 5 9 14 5 7 91 100 81 5 3 5 5 22 42
5 88 99 98 72 35 5 5 5 5 5 5 10 9 100 40 0 0 3 5 5 72
12 22 84 100 100 96 5 5 5 5 36 73 32 9 100 55 5 0 0 0 3 5
17 78 100 58 100 100 100 56 43 7 8 61 100 7 46 100 5 5 5 7 4 0
48 90 100 100 100 80 99 100 100 95 71 35 86 45 8 98 5 5 44 78 98 40
100 99 100 100 100 100 100 87 99 100 100 66 62 96 6 35 5 84 96 95 86 67
19 59 100 100 100 88 100 100 100 100 100 100 74 96 24 8 5 90 100 99 95 5
27 23 60 60 84 100 87 100 100 100 100 100 100 86 28 31 5 80 100 98 100 64

GFSNIL_prec_cloud_285.txt.gz
Cloud_Cover
94 78 99 99 100 85 94 61 53 12 5 57 94 100 100 46 35 78 73 72 62 100
5 6 45 94 100 100 100 100 100 72 57 5 31 52 100 63 32 40 68 78 83 100
5 7 16 55 69 96 100 100 100 100 100 7 6 16 88 89 71 11 63 78 76 100
5 6 5 8 6 36 93 93 100 100 100 99 5 9 7 98 69 21 6 40 92 99
1 0 5 5 6 43 47 27 95 100 100 100 44 2 19 97 42 16 5 7 46 100
0 5 0 0 2 5 10 17 6 100 100 100 95 5 12 100 35 15 15 30 68 99
5 4 5 3 3 3 5 5 5 100 100 100 100 5 8 42 99 49 19 99 100 100
18 5 5 5 4 2 4 5 5 66 100 100 100 5 3 11 39 48 29 100 100 100
5 5 5 5 0 5 0 5 5 13 87 100 100 5 2 10 5 55 33 100 100 96
5 5 5 5 5 0 1 0 4 5 5 95 50 5 2 5 12 54 15 98 95 83
6 5 5 5 5 5 5 4 1 5 5 5 17 5 2 5 5 59 21 12 97 63
64 8 5 5 5 5 5 5 4 1 0 4 5 5 0 1 4 7 24 5 24 62
40 39 5 5 5 5 5 5 5 4 3 3 3 5 0 2 5 5 19 5 5 5
82 100 48 6 5 7 11 5 5 5 5 5 4 1 0 0 4 5 8 5 5 5

GFSNIL_prec_cloud_291.txt.gz
Cloud_Cover
0 0 0 0 0 0 0 0 0 0 0 0 0 0 5 5 5 12 20 5 5 5
0 0 0 0 0 0 0 0 0 0 0 0 0 0 2 5 5 5 5 5 5 5
0 0 0 0 0 0 0 0 0 0 0 0 0 0 0 2 5 5 5 14 5 5
2 0 0 0 0 0 0 0 0 0 0 0 0 0 0 0 5 5 5 18 22 5
6 5 5 0 0 0 0 0 0 0 0 0 0 0 0 5 5 2 5 5 28 5
40 6 57 32 5 2 0 0 0 1 0 0 0 0 0 0 0 5 5 5 5 5
10 17 57 96 70 74 10 0 0 5 0 0 0 0 0 0 0 1 5 5 5 5
12 64 15 5 35 76 100 78 4 1 2 0 0 0 0 2 0 0 3 5 5 1
5 5 5 5 5 5 68 100 83 2 4 0 3 0 0 5 5 0 5 5 5 0
5 25 34 59 18 39 18 57 100 26 3 1 2 5 2 5 5 0 4 5 5 5
29 23 99 100 100 100 50 5 29 98 10 3 5 1 5 3 3 0 5 5 5 3
24 58 95 100 100 100 100 42 29 99 24 5 5 1 3 5 3 0 4 5 5 4
36 6 32 68 78 100 100 100 72 100 93 5 5 5 1 5 0 2 5 4 0 5
100 83 6 21 32 100 100 100 100 88 100 7 20 55 5 5 5 5 5 4 0 5

GFSNIL_prec_cloud_297.txt.gz
Cloud_Cover
5 5 5 5 5 5 5 5 5 5 0 0 0 5 20 5 5 0 3 5 5 5
5 5 5 5 5 59 42 5 5 0 5 2 0 3 5 9 5 5 0 5 5 5
5 5 5 5 5 20 22 5 5 5 5 5 5 2 5 14 5 5 0 0 5 5
5 5 3 5 5 5 5 5 5 5 5 5 5 4 5 5 5 5 0 1 2 4
5 1 5 5 5 5 1 0 5 5 5 5 5 5 5 18 5 5 5 5 2 4
5 5 5 5 5 5 5 5 5 18 5 5 3 5 5 19 26 5 5 5 4 2
46 5 5 5 5 5 5 5 5 5 5 11 12 5 5 5 71 35 5 5 5 5
99 94 42 68 56 24 5 5 5 5 5 5 36 9 5 15 44 99 25 60 12 5
100 89 100 97 56 24 37 14 8 5 5 5 12 70 51 5 37 35 96 48 50 5
100 100 100 100 100 86 72 79 82 18 24 13 56 11 70 22 6 42 88 89 45 5
100 100 100 100 98 100 99 90 100 100 84 58 24 5 25 78 9 6 10 100 54 14
100 100 100 100 100 100 100 100 100 100 100 100 100 98 98 97 52 19 5 40 31 47
100 100 100 100 100 100 100 100 100 100 100 100 100 100 100 100 68 58 5 5 6 36
100 100 100 100 100 100 100 100 100 100 100 100 100 100 100 100 92 56 32 5 15 95